www.pogodaiklimat.ru
Время
(UTC), дата
00 16.01
03 16.01
05 16.01
04 16.01
06 16.01
07 16.01
08 16.01
09 16.01
11 16.01
10 16.01
12 16.01
13 16.01
14 16.01
15 16.01
17 16.01
16 16.01
18 16.01
19 16.01
20 16.01
21 16.01
00 17.01
03 17.01
05 17.01
04 17.01
06 17.01
07 17.01
08 17.01
09 17.01
11 17.01
10 17.01
12 17.01
13 17.01
14 17.01
15 17.01
17 17.01
16 17.01
18 17.01
19 17.01
20 17.01
21 17.01
00 18.01
03 18.01
05 18.01
04 18.01
06 18.01
07 18.01
08 18.01
09 18.01
11 18.01
10 18.01
12 18.01
13 18.01
14 18.01
15 18.01
17 18.01
16 18.01
18 18.01
19 18.01
20 18.01
21 18.01
00 19.01
03 19.01
05 19.01
04 19.01
06 19.01
07 19.01
08 19.01
09 19.01
11 19.01
10 19.01
12 19.01
13 19.01
14 19.01
15 19.01
17 19.01
16 19.01
18 19.01
19 19.01
20 19.01
21 19.01
00 20.01
03 20.01
05 20.01
04 20.01
06 20.01
07 20.01
08 20.01
09 20.01
11 20.01
10 20.01
12 20.01
13 20.01
14 20.01
15 20.01
17 20.01
16 20.01
18 20.01
19 20.01
20 20.01
21 20.01
00 21.01
03 21.01
05 21.01
04 21.01
06 21.01
07 21.01
08 21.01
09 21.01
11 21.01
10 21.01
12 21.01
13 21.01
14 21.01
15 21.01
17 21.01
16 21.01
18 21.01
19 21.01
20 21.01
21 21.01
00 22.01
03 22.01
05 22.01
04 22.01
06 22.01
07 22.01
08 22.01
09 22.01
11 22.01
10 22.01
12 22.01
13 22.01
14 22.01
15 22.01
17 22.01
16 22.01
18 22.01
19 22.01
20 22.01
21 22.01
Ветер
(напр.,м/с)
Видим. Явления Облачность Т
(С)
Тd
(С)
f
(%)
Тe
(С)
Тes
(С)
Комфортность P
(гПа)
Po
(гПа)
Тmin
(С)
Tmax
(С)
R
(мм)
R24
(мм)
S
(см)
С 1 10 км ясно +1.0 -1.1 86 -1 -1 по сезону 1028.7 1024.4
С 1 7000 м дымка ясно -0.1 -1.1 93 -2 -2 по сезону 1028.3 1024.0
штиль 0 8000 м дымка ясно -0.9 -1.8 94 -2 -2 по сезону 1028.5 1024.1
С 1 7000 м дымка ясно -0.3 -1.3 93 -2 -2 по сезону 1028.4 1024.0
СВ 1 8000 м дымка ясно -1.3 -2.8 90 -4 -4 прохладно 1028.4 1024.1 -2.0
штиль 0 8000 м дымка ясно -1.2 -3.4 85 -2 -2 по сезону 1028.4 1024.1
штиль 0 8000 м дымка ясно +1.6 -0.7 85 +1 +3 тепло 1028.5 1024.2
ЮЗ 1 10 км ясно +5.8 +1.3 73 +5 +9 по сезону 1028.7 1024.4
штиль 0 10 км ясно +11.5 -1.1 42 +11 +18 тепло 1027.0 1022.8
штиль 0 10 км ясно +8.6 +0.1 55 +8 +14 тепло 1028.0 1023.8
З 1 10 км ясно +12.7 -0.8 39 +13 +18 тепло 1026.0 1021.9
Ю 1 10 км ясно +13.6 -1.5 35 +14 +17 тепло 1025.5 1021.4
Ю 1 10 км ясно +13.0 +2.4 49 +13 +15 тепло 1025.2 1021.1
Ю 1 10 км ясно +11.5 +2.1 52 +12 +12 тепло 1025.3 1021.1
штиль 0 10 км ясно +5.6 +1.0 72 +5 +5 по сезону 1025.8 1021.6
штиль 0 10 км ясно +7.5 +2.1 69 +7 +7 тепло 1025.6 1021.4
СВ 1 10 км ясно +4.4 +0.7 77 +3 +3 по сезону 1025.9 1021.7 +13.6
штиль 0 10 км ясно +2.2 -0.3 84 +1 +1 по сезону 1026.3 1022.0
штиль 0 10 км ясно +1.2 -1.2 84 0 0 по сезону 1026.5 1022.1
СВ 1 10 км ясно +0.8 -1.4 85 -1 -1 по сезону 1026.3 1022.0
штиль 0 10 км ясно -0.5 -1.9 90 -2 -2 по сезону 1026.2 1021.9
СВ 1 10 км ясно -0.5 -2.0 90 -3 -3 прохладно 1025.8 1021.5
штиль 0 10 км ясно -1.3 -3.2 87 -2 -2 по сезону 1025.7 1021.4
С 1 10 км ясно -1.2 -3.1 87 -3 -3 по сезону 1025.6 1021.3
В 1 10 км ясно -2.2 -4.5 84 -4 -4 прохладно 1026.3 1021.9 -2.3
СЗ 2 10 км ясно -1.2 -3.5 84 -5 -4 по сезону 1026.3 1022.0
С 1 10 км ясно +2.2 -0.6 82 +1 +3 тепло 1026.3 1022.1
штиль 0 6000 м дымка ясно +7.0 0.0 61 +7 +11 тепло 1026.3 1022.1
Ю 1 10 км ясно +11.9 -1.9 38 +12 +18 тепло 1024.9 1020.8
ЮВ 1 10 км ясно +10.3 -1.8 43 +10 +16 тепло 1025.7 1021.5
Ю 1 10 км ясно +12.5 -0.3 41 +13 +18 тепло 1024.2 1020.1
Ю 1 10 км ясно +13.5 -1.6 35 +14 +17 тепло 1023.7 1019.6
штиль 0 10 км ясно +13.6 -3.4 31 +14 +15 тепло 1023.3 1019.3
штиль 0 10 км ясно +12.8 -2.2 35 +13 +13 тепло 1023.3 1019.2
ЮВ 1 10 км ясно +6.0 -1.9 57 +5 +5 по сезону 1024.1 1019.9
Ю 1 10 км ясно +9.2 -3.7 40 +9 +9 тепло 1023.6 1019.5
В 1 10 км ясно +4.7 -2.6 59 +4 +4 по сезону 1024.4 1020.2 +14.0
штиль 0 10 км ясно +2.5 -1.2 77 +2 +2 по сезону 1024.8 1020.5
С 2 6000 м дым ясно +3.2 -1.3 72 0 0 по сезону 1024.9 1020.6
С 1 7000 м дым ясно +2.0 -2.4 73 +1 +1 по сезону 1025.0 1020.7
штиль 0 10 км ясно +0.2 -3.3 77 -1 -1 по сезону 1024.8 1020.5
С 1 10 км ясно -0.6 -4.2 77 -2 -2 по сезону 1024.7 1020.4
С 1 10 км ясно -1.3 -4.4 79 -3 -3 по сезону 1024.7 1020.3
С 2 10 км ясно -0.6 -3.7 80 -4 -4 по сезону 1024.7 1020.4
СВ 1 10 км ясно -1.8 -4.8 80 -4 -4 прохладно 1024.8 1020.5 -2.0
С 1 10 км ясно -0.6 -4.3 76 -2 -2 по сезону 1024.9 1020.6
С 1 10 км 4/0
[Ci sp]
+3.1 -3.9 60 +2 +4 тепло 1024.9 1020.6
ЮЗ 1 10 км 4/0
[Ci sp]
+6.0 -2.1 56 +5 +9 по сезону 1024.7 1020.5
штиль 0 10 км 6/0
[Ci sp]
+9.7 -3.6 39 +10 +15 тепло 1023.4 1019.2
Ю 1 10 км 6/0
[Ci sp]
+7.7 -2.8 47 +7 +12 тепло 1024.5 1020.3
Ю 1 10 км 8/1 1200 м
[Cu hum Ci sp]
+11.1 -3.7 35 +11 +15 тепло 1022.6 1018.5
ЮЗ 1 10 км 5/1 1200 м
[Cu hum Ci sp]
+12.1 -2.5 36 +13 +15 тепло 1021.8 1017.7
ЮЗ 1 10 км 4/0
[Ci sp]
+11.2 -0.9 43 +11 +13 тепло 1021.7 1017.6
штиль 0 10 км 4/0
[Ci sp]
+10.0 -1.3 45 +10 +10 тепло 1021.5 1017.4
В 1 10 км 5/0
[Ci sp]
+6.0 -0.8 62 +5 +5 тепло 1021.7 1017.5
штиль 0 10 км 4/0
[Ci sp]
+7.1 -1.2 56 +7 +7 тепло 1021.4 1017.2
штиль 0 10 км 8/0
[Ac trans]
+5.3 -0.6 66 +5 +5 по сезону 1021.9 1017.7 +12.1
штиль 0 10 км 9/4 1500 м
[Sc Ac As]
+5.0 -0.1 70 +4 +4 тепло 1021.6 1017.4
В 2 10 км 9/5 1200 м
[Cu Sc Ac As]
+5.0 -0.4 68 +3 +3 тепло 1021.4 1017.2
ЮВ 1 10 км 4/0 2000 м
[Ac trans]
+3.7 0.0 77 +2 +2 по сезону 1021.2 1016.9
ЮВ 1 4000 м дождь 10/6 900 м
[Sc As op]
+4.3 +3.5 95 +3 +3 по сезону 1021.3 1017.1 1
В 1 4000 м слаб. дождь 10/6 480 м
[Sc As op]
+4.6 +4.2 97 +3 +3 по сезону 1020.9 1016.7
штиль 0 2000 м слаб. дождь 10/6 300 м
[Sc As op]
+4.3 +4.3 100 +3 +3 тепло 1021.8 1017.6
СВ 1 3000 м слаб. дождь 10/6 400 м
[Sc As op]
+4.4 +4.0 97 +3 +3 тепло 1021.2 1017.0
штиль 0 2000 м слаб. дождь 10/6 300 м
[Sc As op]
+4.5 +4.5 100 +3 +3 по сезону 1022.1 1017.9 +3.6 6
штиль 0 2000 м в посл. час дождь 10/6 300 м
[Sc As op]
+4.6 +4.5 99 +3 +3 тепло 1022.3 1018.1
штиль 0 2000 м дымка {дождь} 10/6 300 м
[Sc As op]
+5.0 +4.9 99 +4 +4 тепло 1022.7 1018.5
СЗ 1 3000 м дымка {дождь} 10/6 300 м
[Sc As op]
+5.5 +5.2 98 +4 +4 по сезону 1023.5 1019.2
ЮЗ 1 7000 м дымка {дождь} 8/6 300 м
[Sc Ac As]
+6.5 +5.1 91 +5 +7 тепло 1023.3 1019.1
штиль 0 4000 м дымка {дождь} 10/6 300 м
[Sc As op]
+6.1 +5.1 93 +5 +6 тепло 1023.7 1019.5
Ю 1 8000 м дымка {дождь} 6/4 900 м
[Sc Ac trans]
+7.2 +5.8 91 +6 +8 по сезону 1023.6 1019.4 0.3
Ю 2 8000 м дымка 6/4 900 м
[Sc Ac trans]
+7.3 +5.3 87 +5 +6 по сезону 1023.8 1019.6
Ю 1 10 км 6/4 1000 м
[Sc Ac trans]
+7.9 +4.9 81 +7 +8 тепло 1024.1 1020.0
ЮЗ 1 10 км 5/3 1200 м
[Sc Ac trans]
+6.7 +4.9 88 +6 +6 тепло 1024.8 1020.6
штиль 0 10 км 4/3 1500 м
[Sc Ac trans]
+5.1 +4.2 94 +4 +4 по сезону 1026.8 1022.5
Ю 1 10 км 4/3 1500 м
[Sc Ac trans]
+5.4 +4.5 94 +4 +4 тепло 1025.6 1021.4
ЮВ 1 7000 м дымка 4/1 1500 м
[Sc Ac trans]
+3.7 +3.6 99 +2 +2 по сезону 1027.4 1023.2 +8.2 0.3
В 2 5000 м дымка 3/1 1500 м
[Sc Ac trans]
+3.7 +3.6 99 +1 +1 по сезону 1028.4 1024.1
В 1 600 м туман местами 4/3 90 м
[St Ac trans]
+3.0 +2.5 97 +1 +1 тепло 1029.1 1024.8
СВ 1 800 м туман местами ясно +4.1 +1.2 81 +3 +3 по сезону 1029.6 1025.4
С 6 10 км ясно +6.4 -3.7 48 +2 +2 по сезону 1031.8 1027.5
С 5 10 км ясно +5.7 -4.4 48 +2 +2 по сезону 1033.4 1029.1
С 4 10 км ясно +4.6 -4.7 51 +1 +1 по сезону 1034.7 1030.4
СВ 5 10 км ясно +5.1 -4.3 51 +1 +1 тепло 1033.9 1029.6
С 5 10 км ясно +4.8 -4.7 50 +1 +1 по сезону 1035.4 1031.1 +2.2 0.3
С 6 10 км ясно +5.4 -4.9 47 +1 +1 по сезону 1036.1 1031.8
С 7 10 км ясно +6.7 -5.1 43 +3 +3 тепло 1036.8 1032.6
С 7 10 км ясно +7.9 -5.2 39 +4 +5 по сезону 1037.5 1033.2
СВ 6 10 км ясно +9.4 -5.1 36 +6 +8 тепло 1037.6 1033.3
СВ 7 10 км ясно +8.7 -5.3 37 +5 +6 тепло 1037.7 1033.5
СВ 7 10 км ясно +10.1 -5.2 34 +7 +8 по сезону 1037.4 1033.2 0.0
В 1 10 км ясно +10.1 -1.8 43 +10 +13 по сезону 1037.3 1033.1
ЮВ 3 10 км ясно +8.5 -1.2 50 +6 +7 по сезону 1037.7 1033.5
Ю 3 10 км ясно +7.8 -1.7 51 +6 +6 по сезону 1038.1 1033.9
СВ 5 10 км ясно +5.9 -5.5 44 +2 +2 по сезону 1039.6 1035.3
штиль 0 10 км ясно +6.5 -2.8 51 +6 +6 по сезону 1038.5 1034.2
СВ 3 10 км ясно +5.1 -5.7 46 +2 +2 по сезону 1040.3 1036.0 +10.5 0.0
В 1 10 км ясно +5.0 -7.3 41 +5 +5 тепло 1041.1 1036.8
СВ 2 10 км ясно +3.9 -5.3 51 +2 +2 по сезону 1041.5 1037.2
С 2 10 км ясно +3.7 -6.4 48 +2 +2 по сезону 1041.6 1037.3
З 1 10 км ясно -0.3 -3.9 77 -2 -2 по сезону 1041.3 1036.9
СВ 1 10 км ясно -1.3 -4.0 82 -3 -3 прохладно 1041.3 1036.9
СВ 1 10 км ясно -2.1 -4.5 84 -4 -4 по сезону 1041.1 1036.7
штиль 0 10 км ясно -2.7 -5.1 84 -4 -4 по сезону 1041.0 1036.6
штиль 0 10 км ясно -3.1 -5.3 85 -4 -4 прохладно 1041.7 1037.3 -3.2
СВ 1 10 км ясно -2.4 -4.8 84 -5 -4 по сезону 1041.8 1037.4
штиль 0 10 км ясно +0.5 -3.4 75 -0 +2 тепло 1042.0 1037.6
штиль 0 10 км ясно +4.5 -1.9 63 +4 +9 по сезону 1042.0 1037.7
штиль 0 10 км ясно +7.3 -3.7 45 +7 +14 тепло 1041.2 1036.9
Ю 1 10 км ясно +5.5 -2.7 55 +5 +10 тепло 1041.6 1037.3
штиль 0 10 км ясно +8.2 -3.9 42 +8 +14 по сезону 1040.4 1036.2
ЮЗ 1 10 км ясно +8.6 -4.1 40 +9 +12 тепло 1039.4 1035.2
ЮЗ 1 10 км ясно +9.2 -3.8 40 +9 +11 тепло 1038.7 1034.5
Ю 1 10 км ясно +8.4 -3.6 43 +8 +9 по сезону 1038.3 1034.1
Ю 1 10 км ясно +3.5 -2.3 66 +2 +2 по сезону 1038.4 1034.1
штиль 0 10 км ясно +5.6 -3.1 53 +5 +5 тепло 1038.1 1033.9
штиль 0 10 км ясно +1.7 -2.2 75 +1 +1 по сезону 1038.3 1034.0 +9.5
СВ 1 10 км ясно +0.6 -2.5 80 -1 -1 по сезону 1038.2 1033.8
С 1 10 км ясно -0.7 -3.2 83 -3 -3 по сезону 1038.0 1033.6
СЗ 1 10 км ясно -0.1 -2.6 83 -2 -2 прохладно 1037.8 1033.4
СВ 1 10 км ясно -1.9 -3.9 86 -4 -4 прохладно 1036.7 1032.3
С 1 10 км ясно -2.3 -4.3 86 -5 -5 прохладно 1035.7 1031.3
С 1 10 км ясно -3.4 -4.9 89 -6 -6 прохладно 1035.2 1030.8
СВ 1 10 км ясно -3.0 -4.7 88 -5 -5 по сезону 1035.3 1030.9
СВ 2 10 км ясно -3.4 -5.0 89 -8 -8 холодно 1035.3 1030.9 -4.2
СВ 1 10 км ясно -2.7 -4.8 85 -5 -4 по сезону 1035.4 1031.0
штиль 0 10 км 4/0
[Ci sp]
-0.2 -2.8 83 -1 +1 тепло 1035.2 1030.8
штиль 0 10 км 4/0
[Ci sp]
+5.1 -2.2 59 +5 +9 по сезону 1035.0 1030.8
Ю 1 10 км 5/0
[Ci sp]
+7.6 -3.4 46 +7 +13 тепло 1033.5 1029.3
ЮЗ 1 10 км 4/0
[Ci sp]
+5.5 -2.3 57 +5 +10 тепло 1034.6 1030.3
ЮВ 1 10 км 5/0
[Ci sp]
+9.2 -3.3 41 +9 +14 по сезону 1032.5 1028.3
ЮЗ 1 10 км 5/0
[Ci sp]
+9.9 -3.8 38 +10 +13 тепло 1031.3 1027.2
штиль 0 10 км 6/0
[Ci sp]
+10.5 -3.4 37 +10 +12 тепло 1030.8 1026.7
штиль 0 10 км 5/0
[Ci sp]
+9.9 -4.0 37 +10 +10 тепло 1030.5 1026.3
штиль 0 10 км 5/0
[Ci sp]
+4.8 -3.5 55 +4 +4 по сезону 1030.4 1026.1
штиль 0 10 км 5/0
[Ci sp]
+7.4 -3.7 45 +7 +7 тепло 1030.1 1025.9
штиль 0 10 км 5/0
[Ci sp]
+3.0 -2.6 67 +2 +2 по сезону 1030.1 1025.9 +10.6
СВ 1 10 км 4/0
[Ci sp]
+1.8 -1.5 79 0 0 по сезону 1030.1 1025.8
С 1 10 км 3/0
[Ci sp]
+0.3 -2.2 83 -2 -2 по сезону 1029.9 1025.6
В 1 8000 м дым ясно +0.6 -2.3 81 -1 -1 прохладно 1029.8 1025.4
Местоположение метеостанции Подгорица (Черногория): широта 42.37 долгота 19.25 высота над уровнем моря 33 м.
В архиве по умолчанию представлена погода в Подгорице за последнюю неделю. Архивные данные за месяц целиком и за предыдущие месяцы, начиная с января 2011 года, Вы можете получить, выбрав интересующий диапазон дат из раскрывающегося списка и нажав кнопку "Найти!".
*Определитесь, кто Вы:
Внимание! Время в таблицах - всемирное. Для получения местного времени необходимо прибавить поправку, которая равна 1 ч.
Смотрите также архив погоды в соседних городах и на ближайших метеорологических станциях:
Партнеры нашего сайта:      
Пояснения к столбцам:
  • Ветер - указаны скорость ветра в м/с - средняя за 10 мин, порывы в срок и между сроками (в фигурных скобках) и направление, откуда дует ветер: С - северный,
  • СВ - северо-восточный, В - восточный, ЮВ - юго-восточный, Ю - южный, ЮЗ - юго-западный, З - западный, СЗ - северо-западный.
  • Видимость - горизонтальная дальность видимости в метрах или километрах. При видимости от 1 до 10 км при отсутствии осадков обычно наблюдается дымка, при ухудшении видимости до 1 км и менее - туман. В сухую погоду видимость может ухудшаться дымом, пылью или мглою.
  • Явления - указаны атмосферные явления, наблюдавшиеся в срок или в последний час перед сроком; фигурными скобками обозначены явления, наблюдавшиеся между сроками (за 1-3 часа до срока); квадратными скобками обозначены град или гололедные отложения с указанием их диаметра в мм.
  • Облачность - указаны через наклонную черту общая и нижняя облачность в баллах и высота нижней границы облаков в метрах; квадратными скобками обозначены формы облаков: Ci - перистые, Cs - перисто-слоистые, Cc - перисто-кучевые, Ac - высококучевые, As - высокослоистые, Sc - слоисто-кучевые, Ns - слоисто-дождевые, Cu - кучевые, Cb - кучево-дождевые. Подробнее классификацию облаков см. в Атласе облаков (PDF).
  • T - Температура воздуха - температура, измеренная на высоте 2 м над землей.
  • Td - Температура точки росы - температура, при понижении до которой содержащийся в воздухе водяной пар достигнет насыщения.
  • f - Относительная влажность воздуха - влажноcть воздуха, измеренная на высоте 2 м над землей.
  • Te - Эффективная температура - температура, которую ощущает одетый по сезону человек в тени. Характеристика душности погоды. При расчете учитывается влияние влажности воздуха и скорости ветра на теплоощущения человека.
  • Tes - Эффективная температура на солнце - температура, которую ощущает человек, с поправкой на солнечный нагрев. Характеристика знойности погоды. Зависит от высоты солнца над горизонтом, облачности и скорости ветра. Ночью, в пасмурную погоду, а также при ветре 12 м/с и более поправка равна нулю.
  • P - Атмосферное давление - приведенное к уровню моря атмосферное давление.
  • Po - Атмосферное давление - измеренное на уровне метеостанции атмосферное давление.
  • Tmin - Минимальная температура - минимум температуры воздуха на высоте 2 м над землей.
  • Tmax - Максимальная температура - максимум температуры воздуха на высоте 2 м над землей.
  • R - Количество осадков - Количество выпавших осадков за период времени, мм. При наведении курсора мыши на число - период времени, за который выпало указанное количество осадков.
  • R24 - Количество осадков - Количество выпавших осадков за 24 часа, мм.
  • S - Снежный покров - Высота снежного покрова, см. При наведении курсора мыши на число - состояние снежного покрова и степень покрытия местности в баллах.